| time (UTC) | temp C | wind direction | speed KPH | gust KPH | rain 1hr cm | rain 24hr cm | rain mn cm | humidity % | barometer mb |
| 20260506212731 | 25 | 281 | 0.0 | 9.7 | 0.00 | 0.00 | 0.00 | 48 | 1017.6 |
| 20260506212458 | 24 | 285 | 0.0 | 4.8 | 0.00 | 0.00 | 0.00 | 48 | 1017.6 |
| 20260506211731 | 24 | 81 | 0.0 | 3.2 | 0.00 | 0.00 | 0.00 | 48 | 1017.7 |
| 20260506211231 | 24 | 266 | 1.6 | 4.8 | 0.00 | 0.00 | 0.00 | 48 | 1017.6 |
| 20260506210731 | 24 | 270 | 1.6 | 4.8 | 0.00 | 0.00 | 0.00 | 48 | 1017.6 |
| 20260506210232 | 24 | 283 | 0.0 | 4.8 | 0.00 | 0.00 | 0.00 | 48 | 1017.6 |
| 20260506205732 | 23 | 275 | 1.6 | 6.4 | 0.00 | 0.00 | 0.00 | 50 | 1017.7 |
| 20260506205231 | 23 | 260 | 1.6 | 8.0 | 0.00 | 0.00 | 0.00 | 51 | 1017.8 |
| 20260506204732 | 23 | 250 | 1.6 | 8.0 | 0.00 | 0.00 | 0.00 | 49 | 1017.8 |
| 20260506204231 | 23 | 292 | 1.6 | 6.4 | 0.00 | 0.00 | 0.00 | 50 | 1017.9 |
| 20260506203731 | 23 | 275 | 1.6 | 9.7 | 0.00 | 0.00 | 0.00 | 51 | 1017.9 |
| 20260506203231 | 22 | 288 | 1.6 | 9.7 | 0.00 | 0.00 | 0.00 | 52 | 1018.0 |
| 20260506202731 | 22 | 271 | 1.6 | 9.7 | 0.00 | 0.00 | 0.00 | 52 | 1018.0 |
| 20260506202231 | 22 | 260 | 1.6 | 8.0 | 0.00 | 0.00 | 0.00 | 52 | 1018.1 |
| 20260506201731 | 22 | 258 | 1.6 | 6.4 | 0.00 | 0.00 | 0.00 | 52 | 1018.2 |
| 20260506201238 | 22 | 293 | 0.0 | 6.4 | 0.00 | 0.00 | 0.00 | 54 | 1018.3 |
| 20260506200731 | 22 | 307 | 1.6 | 4.8 | 0.00 | 0.00 | 0.00 | 54 | 1018.3 |
| 20260506200231 | 22 | 282 | 1.6 | 4.8 | 0.00 | 0.00 | 0.00 | 55 | 1018.4 |
| 20260506200001 | 21 | 321 | 1.6 | 6.4 | 0.00 | 0.00 | 0.00 | 57 | 1018.5 |
| 20260506195231 | 21 | 277 | 1.6 | 6.4 | 0.00 | 0.00 | 0.00 | 57 | 1018.5 |
| 20260506194950 | 21 | 284 | 0.0 | 3.2 | 0.00 | 0.00 | 0.00 | 62 | 1018.5 |
| 20260506194232 | 21 | 288 | 1.6 | 8.0 | 0.00 | 0.00 | 0.00 | 61 | 1018.6 |
| 20260506193731 | 21 | 274 | 1.6 | 8.0 | 0.00 | 0.00 | 0.00 | 60 | 1018.7 |
| 20260506193232 | 21 | 259 | 1.6 | 6.4 | 0.00 | 0.00 | 0.00 | 61 | 1018.8 |
| 20260506192951 | 21 | 269 | 0.0 | 4.8 | 0.00 | 0.00 | 0.00 | 60 | 1018.7 |
| 20260506192231 | 21 | 278 | 0.0 | 3.2 | 0.00 | 0.00 | 0.00 | 60 | 1018.8 |
| 20260506191731 | 21 | 274 | 0.0 | 4.8 | 0.00 | 0.00 | 0.00 | 59 | 1018.8 |
| 20260506191232 | 21 | 283 | 1.6 | 8.0 | 0.00 | 0.00 | 0.00 | 58 | 1018.9 |
| 20260506190731 | 21 | 281 | 1.6 | 8.0 | 0.00 | 0.00 | 0.00 | 59 | 1018.9 |
| 20260506190231 | 21 | 5 | 0.0 | 8.0 | 0.00 | 0.00 | 0.00 | 60 | 1018.9 |
| 20260506185731 | 21 | 353 | 0.0 | 8.0 | 0.00 | 0.00 | 0.00 | 61 | 1018.9 |
| 20260506185232 | 21 | 1 | 0.0 | 6.4 | 0.00 | 0.00 | 0.00 | 61 | 1018.9 |
| 20260506184732 | 20 | 278 | 1.6 | 8.0 | 0.00 | 0.00 | 0.00 | 61 | 1018.9 |
| 20260506184249 | 20 | 270 | 1.6 | 8.0 | 0.00 | 0.00 | 0.00 | 64 | 1019.0 |
| 20260506184244 | 20 | 293 | 1.6 | 8.0 | 0.00 | 0.00 | 0.00 | 62 | 1018.9 |
| 20260506183231 | 20 | 276 | 1.6 | 8.0 | 0.00 | 0.00 | 0.00 | 63 | 1019.1 |
| 20260506182731 | 19 | 281 | 1.6 | 8.0 | 0.00 | 0.00 | 0.00 | 64 | 1019.1 |
| 20260506182232 | 19 | 275 | 1.6 | 9.7 | 0.00 | 0.00 | 0.00 | 63 | 1019.2 |
| 20260506181731 | 19 | 277 | 1.6 | 9.7 | 0.00 | 0.00 | 0.00 | 63 | 1019.2 |
| 20260506181234 | 19 | 290 | 0.0 | 4.8 | 0.00 | 0.00 | 0.00 | 65 | 1019.2 |
| 20260506180732 | 18 | 232 | 0.0 | 4.8 | 0.00 | 0.00 | 0.00 | 65 | 1019.1 |
| 20260506180454 | 18 | 285 | 0.0 | 4.8 | 0.00 | 0.00 | 0.00 | 66 | 1019.2 |
| 20260506175732 | 18 | 283 | 0.0 | 4.8 | 0.00 | 0.00 | 0.00 | 67 | 1019.1 |
| 20260506175231 | 18 | 281 | 0.0 | 4.8 | 0.00 | 0.00 | 0.00 | 67 | 1019.2 |
| 20260506174730 | 18 | 322 | 0.0 | 4.8 | 0.00 | 0.00 | 0.00 | 68 | 1019.2 |
| 20260506174232 | 17 | 271 | 1.6 | 6.4 | 0.00 | 0.00 | 0.00 | 69 | 1019.2 |
| 20260506173955 | 17 | 256 | 1.6 | 6.4 | 0.00 | 0.00 | 0.00 | 69 | 1019.3 |
| 20260506173232 | 17 | 281 | 1.6 | 6.4 | 0.00 | 0.00 | 0.00 | 70 | 1019.2 |
| 20260506172725 | 17 | 294 | 1.6 | 6.4 | 0.00 | 0.00 | 0.00 | 71 | 1019.3 |
| 20260506172220 | 17 | 276 | 0.0 | 1.6 | 0.00 | 0.00 | 0.00 | 71 | 1019.3 |
| 20260506171937 | 16 | 275 | 0.0 | 1.6 | 0.00 | 0.00 | 0.00 | 73 | 1019.3 |
| 20260506171206 | 16 | 274 | 0.0 | 1.6 | 0.00 | 0.00 | 0.00 | 73 | 1019.3 |
| 20260506170707 | 16 | 270 | 0.0 | 3.2 | 0.00 | 0.00 | 0.00 | 74 | 1019.3 |
| 20260506170435 | 16 | 270 | 0.0 | 3.2 | 0.00 | 0.00 | 0.00 | 74 | 1019.4 |
| 20260506165703 | 16 | 270 | 0.0 | 3.2 | 0.00 | 0.00 | 0.00 | 74 | 1019.3 |
| 20260506165203 | 16 | 284 | 0.0 | 3.2 | 0.00 | 0.00 | 0.00 | 75 | 1019.4 |
| 20260506164703 | 15 | 276 | 1.6 | 4.8 | 0.00 | 0.00 | 0.00 | 75 | 1019.3 |
| 20260506164204 | 15 | 276 | 1.6 | 4.8 | 0.00 | 0.00 | 0.00 | 76 | 1019.4 |
| 20260506163710 | 15 | 273 | 0.0 | 4.8 | 0.00 | 0.00 | 0.00 | 76 | 1019.4 |
| 20260506163203 | 15 | 273 | 0.0 | 6.4 | 0.00 | 0.00 | 0.00 | 77 | 1019.4 |
| 20260506162703 | 15 | 279 | 1.6 | 6.4 | 0.00 | 0.00 | 0.00 | 78 | 1019.4 |
| 20260506162204 | 14 | 274 | 1.6 | 4.8 | 0.00 | 0.00 | 0.00 | 78 | 1019.4 |
| 20260506161704 | 14 | 276 | 0.0 | 1.6 | 0.00 | 0.00 | 0.00 | 80 | 1019.4 |
| 20260506161204 | 14 | 290 | 0.0 | 0.0 | 0.00 | 0.00 | 0.00 | 80 | 1019.4 |
| 20260506160703 | 14 | 290 | 0.0 | 1.6 | 0.00 | 0.00 | 0.00 | 81 | 1019.3 |
| 20260506160203 | 13 | 290 | 0.0 | 1.6 | 0.00 | 0.00 | 0.00 | 80 | 1019.4 |
| 20260506155703 | 13 | 290 | 0.0 | 0.0 | 0.00 | 0.00 | 0.00 | 81 | 1019.4 |
| 20260506155154 | 13 | 290 | 0.0 | 0.0 | 0.00 | 0.00 | 0.00 | 81 | 1019.4 |
| 20260506154651 | 13 | 288 | 0.0 | 3.2 | 0.00 | 0.00 | 0.00 | 82 | 1019.5 |
| 20260506154132 | 13 | 284 | 0.0 | 1.6 | 0.00 | 0.00 | 0.00 | 81 | 1019.5 |
| 20260506153631 | 13 | 284 | 0.0 | 3.2 | 0.00 | 0.00 | 0.00 | 82 | 1019.5 |
| 20260506153132 | 13 | 287 | 0.0 | 3.2 | 0.00 | 0.00 | 0.00 | 82 | 1019.5 |
| 20260506152631 | 13 | 284 | 0.0 | 0.0 | 0.00 | 0.00 | 0.00 | 83 | 1019.6 |
| 20260506152131 | 13 | 285 | 0.0 | 0.0 | 0.00 | 0.00 | 0.00 | 84 | 1019.6 |
| 20260506151841 | 12 | 285 | 0.0 | 0.0 | 0.00 | 0.00 | 0.00 | 84 | 1019.5 |
| 20260506151114 | 12 | 285 | 0.0 | 0.0 | 0.00 | 0.00 | 0.00 | 84 | 1019.5 |
| 20260506150841 | 12 | 285 | 0.0 | 0.0 | 0.00 | 0.00 | 0.00 | 85 | 1019.6 |
| 20260506150104 | 12 | 285 | 0.0 | 0.0 | 0.00 | 0.00 | 0.00 | 85 | 1019.5 |
| 20260506145603 | 12 | 285 | 0.0 | 0.0 | 0.00 | 0.00 | 0.00 | 85 | 1019.5 |
| 20260506145104 | 12 | 285 | 0.0 | 0.0 | 0.00 | 0.00 | 0.00 | 85 | 1019.4 |
| 20260506144603 | 12 | 285 | 0.0 | 0.0 | 0.00 | 0.00 | 0.00 | 85 | 1019.4 |
| 20260506144103 | 12 | 285 | 0.0 | 0.0 | 0.00 | 0.00 | 0.00 | 85 | 1019.5 |
| 20260506143603 | 12 | 285 | 0.0 | 0.0 | 0.00 | 0.00 | 0.00 | 86 | 1019.4 |
| 20260506143102 | 12 | 285 | 0.0 | 0.0 | 0.00 | 0.00 | 0.00 | 86 | 1019.4 |
| 20260506142538 | 12 | 264 | 0.0 | 0.0 | 0.00 | 0.00 | 0.00 | 86 | 1019.2 |
| 20260506142032 | 12 | 264 | 0.0 | 0.0 | 0.00 | 0.00 | 0.00 | 87 | 1019.2 |
| 20260506141531 | 12 | 264 | 0.0 | 0.0 | 0.00 | 0.00 | 0.00 | 87 | 1019.2 |
| 20260506141032 | 12 | 264 | 0.0 | 0.0 | 0.00 | 0.00 | 0.00 | 88 | 1019.1 |
| 20260506140532 | 11 | 264 | 0.0 | 0.0 | 0.00 | 0.00 | 0.00 | 88 | 1019.0 |
| 20260506140031 | 11 | 264 | 0.0 | 0.0 | 0.00 | 0.00 | 0.00 | 88 | 1018.9 |
| 20260506135532 | 11 | 264 | 0.0 | 0.0 | 0.00 | 0.00 | 0.00 | 88 | 1018.9 |
| 20260506135031 | 11 | 264 | 0.0 | 0.0 | 0.00 | 0.00 | 0.00 | 88 | 1018.9 |
| 20260506134529 | 11 | 264 | 0.0 | 0.0 | 0.00 | 0.00 | 0.00 | 88 | 1018.8 |
| 20260506134004 | 11 | 264 | 0.0 | 0.0 | 0.00 | 0.00 | 0.00 | 88 | 1018.8 |
| 20260506133504 | 11 | 264 | 0.0 | 0.0 | 0.00 | 0.00 | 0.00 | 88 | 1018.8 |
| 20260506133004 | 11 | 264 | 0.0 | 0.0 | 0.00 | 0.00 | 0.00 | 87 | 1018.8 |
| 20260506132504 | 11 | 264 | 0.0 | 0.0 | 0.00 | 0.00 | 0.00 | 87 | 1018.8 |
| 20260506132005 | 11 | 264 | 0.0 | 0.0 | 0.00 | 0.00 | 0.00 | 87 | 1018.7 |
| 20260506131503 | 11 | 264 | 0.0 | 0.0 | 0.00 | 0.00 | 0.00 | 87 | 1018.7 |
| 20260506131004 | 11 | 264 | 0.0 | 0.0 | 0.00 | 0.00 | 0.00 | 87 | 1018.6 |
| 20260506130754 | 11 | 264 | 0.0 | 0.0 | 0.00 | 0.00 | 0.00 | 86 | 1018.6 |
| 20260506130004 | 11 | 264 | 0.0 | 0.0 | 0.00 | 0.00 | 0.00 | 86 | 1018.6 |
| 20260506125504 | 11 | 264 | 0.0 | 0.0 | 0.00 | 0.00 | 0.00 | 86 | 1018.6 |
| 20260506125004 | 12 | 264 | 0.0 | 0.0 | 0.00 | 0.00 | 0.00 | 86 | 1018.5 |
| 20260506124503 | 12 | 264 | 0.0 | 0.0 | 0.00 | 0.00 | 0.00 | 86 | 1018.5 |
| 20260506124444 | 12 | 264 | 0.0 | 0.0 | 0.00 | 0.00 | 0.00 | 85 | 1018.5 |
| 20260506123504 | 12 | 264 | 0.0 | 0.0 | 0.00 | 0.00 | 0.00 | 85 | 1018.5 |
| 20260506123004 | 12 | 264 | 0.0 | 0.0 | 0.00 | 0.00 | 0.00 | 85 | 1018.5 |
| 20260506122503 | 12 | 264 | 0.0 | 0.0 | 0.00 | 0.00 | 0.00 | 85 | 1018.5 |
| 20260506122238 | 12 | 264 | 0.0 | 0.0 | 0.00 | 0.00 | 0.00 | 85 | 1018.4 |
| 20260506121433 | 12 | 264 | 0.0 | 0.0 | 0.00 | 0.00 | 0.00 | 85 | 1018.5 |
| 20260506120931 | 12 | 264 | 0.0 | 0.0 | 0.00 | 0.00 | 0.00 | 85 | 1018.5 |
| 20260506120439 | 12 | 264 | 0.0 | 0.0 | 0.00 | 0.00 | 0.00 | 85 | 1018.5 |
| 20260506120156 | 12 | 264 | 0.0 | 0.0 | 0.00 | 0.00 | 0.00 | 85 | 1018.4 |
| 20260506115435 | 12 | 264 | 0.0 | 0.0 | 0.00 | 0.00 | 0.00 | 85 | 1018.4 |
| 20260506114931 | 12 | 264 | 0.0 | 0.0 | 0.00 | 0.00 | 0.00 | 85 | 1018.3 |
| 20260506114432 | 12 | 264 | 0.0 | 0.0 | 0.00 | 0.00 | 0.00 | 85 | 1018.3 |
| 20260506113930 | 12 | 264 | 0.0 | 0.0 | 0.00 | 0.00 | 0.00 | 85 | 1018.3 |
| 20260506113434 | 12 | 264 | 0.0 | 0.0 | 0.00 | 0.00 | 0.00 | 85 | 1018.2 |
| 20260506112932 | 12 | 264 | 0.0 | 0.0 | 0.00 | 0.00 | 0.00 | 85 | 1018.2 |
| 20260506112433 | 12 | 264 | 0.0 | 0.0 | 0.00 | 0.00 | 0.00 | 85 | 1018.2 |
| 20260506111931 | 12 | 264 | 0.0 | 0.0 | 0.00 | 0.00 | 0.00 | 85 | 1018.1 |
| 20260506111433 | 12 | 295 | 0.0 | 0.0 | 0.00 | 0.00 | 0.00 | 85 | 1018.1 |
| 20260506110931 | 12 | 296 | 0.0 | 0.0 | 0.00 | 0.00 | 0.00 | 85 | 1018.0 |
| 20260506110433 | 12 | 295 | 0.0 | 0.0 | 0.00 | 0.00 | 0.00 | 85 | 1018.0 |
| 20260506105931 | 12 | 295 | 0.0 | 0.0 | 0.00 | 0.00 | 0.00 | 85 | 1017.9 |
| 20260506105434 | 12 | 296 | 0.0 | 0.0 | 0.00 | 0.00 | 0.00 | 85 | 1017.9 |
| 20260506104931 | 12 | 295 | 0.0 | 0.0 | 0.00 | 0.00 | 0.00 | 85 | 1017.9 |
| 20260506104433 | 12 | 295 | 0.0 | 0.0 | 0.00 | 0.00 | 0.00 | 85 | 1017.9 |
| 20260506103931 | 12 | 295 | 0.0 | 0.0 | 0.00 | 0.00 | 0.00 | 85 | 1017.9 |
| 20260506103658 | 12 | 296 | 0.0 | 0.0 | 0.00 | 0.00 | 0.00 | 85 | 1017.9 |
| 20260506102932 | 12 | 296 | 0.0 | 0.0 | 0.00 | 0.00 | 0.00 | 85 | 1017.9 |
| 20260506102433 | 12 | 296 | 0.0 | 0.0 | 0.00 | 0.00 | 0.00 | 85 | 1017.8 |
| 20260506101930 | 12 | 296 | 0.0 | 0.0 | 0.00 | 0.00 | 0.00 | 85 | 1017.8 |
| 20260506101433 | 12 | 296 | 0.0 | 0.0 | 0.00 | 0.00 | 0.00 | 85 | 1017.8 |
| 20260506100931 | 12 | 296 | 0.0 | 0.0 | 0.00 | 0.00 | 0.00 | 85 | 1017.8 |
| 20260506100432 | 12 | 295 | 0.0 | 3.2 | 0.00 | 0.00 | 0.00 | 85 | 1017.7 |
| 20260506095931 | 12 | 296 | 0.0 | 3.2 | 0.00 | 0.00 | 0.00 | 85 | 1017.8 |
| 20260506095433 | 12 | 280 | 0.0 | 3.2 | 0.00 | 0.00 | 0.00 | 85 | 1017.8 |
| 20260506094931 | 12 | 280 | 0.0 | 3.2 | 0.00 | 0.00 | 0.00 | 85 | 1017.8 |
| 20260506094432 | 12 | 280 | 0.0 | 0.0 | 0.00 | 0.00 | 0.00 | 85 | 1017.7 |
| 20260506094150 | 12 | 280 | 0.0 | 1.6 | 0.00 | 0.00 | 0.00 | 85 | 1017.7 |
| 20260506093658 | 12 | 280 | 0.0 | 1.6 | 0.00 | 0.00 | 0.00 | 85 | 1017.7 |
| 20260506092931 | 12 | 272 | 0.0 | 3.2 | 0.00 | 0.00 | 0.00 | 85 | 1017.7 |
| 20260506092432 | 12 | 275 | 0.0 | 3.2 | 0.00 | 0.00 | 0.00 | 85 | 1017.7 |
| 20260506091932 | 12 | 281 | 0.0 | 3.2 | 0.00 | 0.00 | 0.00 | 85 | 1017.8 |
| 20260506091433 | 12 | 285 | 0.0 | 0.0 | 0.00 | 0.00 | 0.00 | 86 | 1017.7 |
| 20260506090926 | 12 | 285 | 0.0 | 0.0 | 0.00 | 0.03 | 0.00 | 86 | 1017.7 |
| 20260506090425 | 12 | 286 | 0.0 | 0.0 | 0.00 | 0.03 | 0.00 | 86 | 1017.7 |
| 20260506090158 | 12 | 286 | 0.0 | 1.6 | 0.00 | 0.03 | 0.00 | 86 | 1017.7 |
| 20260506085405 | 11 | 286 | 0.0 | 1.6 | 0.00 | 0.05 | 0.00 | 87 | 1017.8 |
| 20260506084904 | 11 | 286 | 0.0 | 1.6 | 0.00 | 0.05 | 0.00 | 87 | 1017.8 |
| 20260506084405 | 11 | 288 | 0.0 | 1.6 | 0.00 | 0.05 | 0.00 | 88 | 1017.8 |
| 20260506083903 | 11 | 257 | 0.0 | 1.6 | 0.00 | 0.08 | 0.00 | 89 | 1017.7 |
| 20260506083405 | 11 | 283 | 0.0 | 0.0 | 0.00 | 0.08 | 0.00 | 89 | 1017.8 |
| 20260506083154 | 11 | 283 | 0.0 | 0.0 | 0.00 | 0.08 | 0.00 | 89 | 1017.8 |
| 20260506082630 | 11 | 283 | 0.0 | 0.0 | 0.00 | 0.08 | 0.00 | 90 | 1017.8 |
| 20260506081903 | 11 | 283 | 0.0 | 0.0 | 0.00 | 0.08 | 0.00 | 90 | 1017.6 |
| 20260506081625 | 10 | 283 | 0.0 | 0.0 | 0.00 | 0.08 | 0.00 | 90 | 1017.7 |
| 20260506080904 | 10 | 283 | 0.0 | 0.0 | 0.00 | 0.08 | 0.00 | 90 | 1017.8 |
| 20260506080404 | 10 | 283 | 0.0 | 0.0 | 0.00 | 0.10 | 0.00 | 90 | 1017.6 |
| 20260506072904 | 10 | 283 | 0.0 | 0.0 | 0.00 | 0.20 | 0.00 | 88 | 1017.5 |
| 20260506072403 | 10 | 283 | 0.0 | 0.0 | 0.00 | 0.20 | 0.00 | 88 | 1017.5 |
| 20260506071904 | 11 | 283 | 0.0 | 0.0 | 0.00 | 0.23 | 0.00 | 88 | 1017.4 |
| 20260506071403 | 11 | 283 | 0.0 | 0.0 | 0.00 | 0.23 | 0.00 | 87 | 1017.4 |
| 20260506070903 | 11 | 283 | 0.0 | 0.0 | 0.00 | 0.23 | 0.00 | 87 | 1017.3 |
| 20260506070403 | 11 | 283 | 0.0 | 0.0 | 0.00 | 0.25 | 0.00 | 87 | 1017.3 |
| 20260506061904 | 11 | 297 | 0.0 | 0.0 | 0.00 | 0.36 | 0.25 | 85 | 1017.0 |
| 20260506061403 | 12 | 277 | 0.0 | 0.0 | 0.00 | 0.36 | 0.25 | 85 | 1016.9 |
| 20260506060903 | 12 | 277 | 0.0 | 0.0 | 0.00 | 0.38 | 0.25 | 84 | 1016.9 |
| 20260506060403 | 12 | 277 | 0.0 | 0.0 | 0.00 | 0.38 | 0.25 | 84 | 1016.8 |
| 20260506051404 | 12 | 300 | 0.0 | 1.6 | 0.00 | 0.43 | 0.25 | 82 | 1016.6 |
| 20260506050903 | 13 | 300 | 0.0 | 6.4 | 0.00 | 0.43 | 0.25 | 81 | 1016.4 |
| 20260506050633 | 13 | 255 | 0.0 | 6.4 | 0.00 | 0.43 | 0.25 | 81 | 1016.4 |
| 20260506044903 | 13 | 264 | 0.0 | 4.8 | 0.00 | 0.46 | 0.25 | 80 | 1016.3 |
| 20260506044403 | 13 | 262 | 0.0 | 3.2 | 0.00 | 0.48 | 0.25 | 80 | 1016.3 |
| 20260506043904 | 13 | 276 | 0.0 | 3.2 | 0.00 | 0.51 | 0.25 | 79 | 1016.2 |
| 20260506043403 | 13 | 278 | 0.0 | 4.8 | 0.00 | 0.51 | 0.25 | 80 | 1016.2 |
| 20260506042903 | 13 | 272 | 1.6 | 4.8 | 0.00 | 0.53 | 0.25 | 79 | 1016.1 |
| 20260506042404 | 13 | 272 | 0.0 | 4.8 | 0.00 | 0.53 | 0.25 | 79 | 1016.0 |
| 20260506041903 | 13 | 272 | 0.0 | 3.2 | 0.00 | 0.53 | 0.25 | 79 | 1015.9 |
| 20260506041403 | 13 | 290 | 0.0 | 3.2 | 0.00 | 0.56 | 0.25 | 79 | 1015.8 |
| 20260506040904 | 13 | 289 | 0.0 | 4.8 | 0.00 | 0.56 | 0.25 | 79 | 1015.8 |
| 20260506040631 | 13 | 284 | 0.0 | 6.4 | 0.00 | 0.56 | 0.25 | 78 | 1015.7 |
| 20260506035903 | 13 | 288 | 1.6 | 6.4 | 0.00 | 0.56 | 0.25 | 78 | 1015.7 |
| 20260506035404 | 14 | 212 | 1.6 | 6.4 | 0.00 | 0.56 | 0.25 | 78 | 1015.7 |
| 20260506034903 | 14 | 263 | 0.0 | 6.4 | 0.00 | 0.56 | 0.25 | 78 | 1015.7 |
| 20260506034405 | 14 | 274 | 0.0 | 8.0 | 0.00 | 0.56 | 0.25 | 77 | 1015.6 |
| 20260506033903 | 14 | 268 | 1.6 | 8.0 | 0.00 | 0.56 | 0.25 | 77 | 1015.6 |
| 20260506033403 | 14 | 198 | 1.6 | 11.3 | 0.00 | 0.56 | 0.25 | 77 | 1015.4 |
| 20260506032904 | 14 | 255 | 1.6 | 11.3 | 0.00 | 0.56 | 0.25 | 76 | 1015.4 |
| 20260506032404 | 14 | 276 | 1.6 | 8.0 | 0.00 | 0.56 | 0.25 | 76 | 1015.2 |
| 20260506031903 | 14 | 284 | 3.2 | 8.0 | 0.00 | 0.56 | 0.25 | 76 | 1015.1 |
| 20260506031403 | 14 | 266 | 1.6 | 8.0 | 0.00 | 0.56 | 0.25 | 75 | 1015.0 |
| 20260506031341 | 14 | 279 | 0.0 | 8.0 | 0.00 | 0.56 | 0.25 | 76 | 1015.0 |
| 20260506030403 | 14 | 301 | 0.0 | 4.8 | 0.00 | 0.56 | 0.25 | 76 | 1015.0 |
| 20260506030355 | 14 | 274 | 1.6 | 8.0 | 0.00 | 0.56 | 0.25 | 76 | 1014.9 |
| 20260506025403 | 14 | 280 | 3.2 | 8.0 | 0.00 | 0.56 | 0.25 | 75 | 1014.9 |
| 20260506024904 | 15 | 289 | 1.6 | 8.0 | 0.00 | 0.56 | 0.25 | 75 | 1014.9 |
| 20260506024403 | 15 | 285 | 1.6 | 8.0 | 0.00 | 0.56 | 0.25 | 76 | 1014.8 |
| 20260506023904 | 15 | 281 | 1.6 | 6.4 | 0.00 | 0.56 | 0.25 | 75 | 1014.7 |
| 20260506023359 | 15 | 278 | 1.6 | 6.4 | 0.00 | 0.56 | 0.25 | 75 | 1014.7 |
| 20260506023116 | 15 | 277 | 0.0 | 6.4 | 0.00 | 0.56 | 0.25 | 75 | 1014.6 |
| 20260506022404 | 15 | 278 | 0.0 | 4.8 | 0.00 | 0.56 | 0.25 | 75 | 1014.6 |
| 20260506021835 | 15 | 291 | 1.6 | 6.4 | 0.00 | 0.56 | 0.25 | 74 | 1014.5 |
| 20260506021335 | 15 | 287 | 1.6 | 6.4 | 0.00 | 0.56 | 0.25 | 74 | 1014.5 |
| 20260506021050 | 15 | 264 | 1.6 | 8.0 | 0.00 | 0.56 | 0.25 | 74 | 1014.5 |
| 20260506020333 | 15 | 276 | 1.6 | 8.0 | 0.00 | 0.56 | 0.25 | 74 | 1014.5 |
| 20260506015831 | 15 | 269 | 1.6 | 4.8 | 0.00 | 0.56 | 0.25 | 74 | 1014.4 |
| 20260506015349 | 16 | 286 | 1.6 | 8.0 | 0.00 | 0.56 | 0.25 | 74 | 1014.3 |
| 20260506015343 | 16 | 281 | 1.6 | 8.0 | 0.00 | 0.56 | 0.25 | 74 | 1014.4 |
| 20260506014332 | 16 | 300 | 1.6 | 4.8 | 0.00 | 0.56 | 0.25 | 73 | 1014.3 |
| 20260506013831 | 16 | 293 | 0.0 | 6.4 | 0.00 | 0.56 | 0.25 | 73 | 1014.2 |
| 20260506013333 | 16 | 262 | 0.0 | 6.4 | 0.00 | 0.56 | 0.25 | 73 | 1014.2 |
| 20260506012831 | 16 | 285 | 1.6 | 4.8 | 0.00 | 0.56 | 0.25 | 73 | 1014.1 |
| 20260506012333 | 16 | 274 | 0.0 | 6.4 | 0.00 | 0.56 | 0.25 | 73 | 1014.1 |
| 20260506011831 | 16 | 212 | 0.0 | 4.8 | 0.00 | 0.56 | 0.25 | 72 | 1014.2 |
| 20260506011333 | 16 | 219 | 1.6 | 9.7 | 0.00 | 0.56 | 0.25 | 73 | 1014.2 |
| 20260506010831 | 16 | 243 | 1.6 | 9.7 | 0.00 | 0.56 | 0.25 | 72 | 1014.2 |
| 20260506010553 | 16 | 282 | 1.6 | 11.3 | 0.00 | 0.56 | 0.25 | 72 | 1014.1 |
| 20260506010055 | 17 | 272 | 3.2 | 11.3 | 0.00 | 0.56 | 0.25 | 71 | 1014.2 |
| 20260506005332 | 17 | 288 | 3.2 | 12.9 | 0.00 | 0.56 | 0.25 | 71 | 1014.1 |
| 20260506004831 | 17 | 262 | 1.6 | 12.9 | 0.00 | 0.56 | 0.25 | 70 | 1014.0 |
| 20260506004333 | 17 | 256 | 1.6 | 9.7 | 0.00 | 0.56 | 0.25 | 69 | 1014.1 |
| 20260506003832 | 18 | 283 | 1.6 | 9.7 | 0.00 | 0.56 | 0.25 | 68 | 1014.1 |
| 20260506003557 | 18 | 273 | 1.6 | 6.4 | 0.00 | 0.56 | 0.25 | 66 | 1014.1 |
| 20260506002831 | 18 | 288 | 0.0 | 1.6 | 0.00 | 0.56 | 0.25 | 67 | 1014.0 |
| 20260506002333 | 18 | 315 | 0.0 | 4.8 | 0.00 | 0.56 | 0.25 | 68 | 1013.9 |
| 20260506001831 | 18 | 268 | 0.0 | 4.8 | 0.00 | 0.56 | 0.25 | 68 | 1013.9 |
| 20260506001332 | 17 | 269 | 0.0 | 4.8 | 0.00 | 0.56 | 0.25 | 67 | 1014.0 |
| 20260506000831 | 17 | 241 | 0.0 | 4.8 | 0.00 | 0.56 | 0.25 | 68 | 1013.9 |
| 20260506000805 | 17 | 302 | 0.0 | 1.6 | 0.00 | 0.56 | 0.25 | 69 | 1014.0 |
| 20260506000758 | 17 | 217 | 0.0 | 1.6 | 0.00 | 0.56 | 0.25 | 70 | 1014.0 |
| 20260505235340 | 17 | 279 | 0.0 | 1.6 | 0.00 | 0.56 | 0.25 | 71 | 1013.9 |
| 20260505234831 | 17 | 278 | 0.0 | 4.8 | 0.00 | 0.56 | 0.25 | 71 | 1013.9 |
| 20260505234333 | 17 | 278 | 0.0 | 4.8 | 0.00 | 0.56 | 0.25 | 71 | 1014.0 |
| 20260505233831 | 17 | 290 | 0.0 | 4.8 | 0.00 | 0.56 | 0.25 | 71 | 1014.0 |
| 20260505233551 | 17 | 293 | 1.6 | 6.4 | 0.00 | 0.56 | 0.25 | 70 | 1014.0 |
| 20260505232831 | 17 | 282 | 1.6 | 6.4 | 0.00 | 0.56 | 0.25 | 70 | 1014.1 |
| 20260505232333 | 17 | 298 | 0.0 | 6.4 | 0.00 | 0.56 | 0.25 | 73 | 1014.1 |
| 20260505231832 | 17 | 298 | 1.6 | 6.4 | 0.00 | 0.56 | 0.25 | 71 | 1014.1 |
| 20260505231333 | 17 | 278 | 0.0 | 4.8 | 0.00 | 0.56 | 0.25 | 71 | 1014.1 |
| 20260505230831 | 17 | 293 | 0.0 | 1.6 | 0.00 | 0.56 | 0.25 | 71 | 1014.1 |
| 20260505230554 | 17 | 293 | 0.0 | 1.6 | 0.00 | 0.56 | 0.25 | 71 | 1014.1 |
| 20260505225832 | 17 | 295 | 0.0 | 4.8 | 0.00 | 0.56 | 0.25 | 71 | 1014.1 |
| 20260505225333 | 17 | 285 | 0.0 | 4.8 | 0.00 | 0.56 | 0.25 | 71 | 1014.1 |
| 20260505224807 | 17 | 276 | 0.0 | 3.2 | 0.00 | 0.56 | 0.25 | 72 | 1014.1 |
| 20260505224311 | 17 | 276 | 0.0 | 3.2 | 0.00 | 0.56 | 0.25 | 71 | 1014.1 |
| 20260505223804 | 17 | 275 | 0.0 | 8.0 | 0.00 | 0.56 | 0.25 | 70 | 1014.1 |
| 20260505223305 | 17 | 283 | 0.0 | 8.0 | 0.00 | 0.56 | 0.25 | 70 | 1014.1 |
| 20260505223021 | 17 | 244 | 0.0 | 1.6 | 0.00 | 0.56 | 0.25 | 71 | 1014.1 |
| 20260505222306 | 17 | 262 | 0.0 | 0.0 | 0.00 | 0.56 | 0.25 | 71 | 1014.2 |
| 20260505221803 | 17 | 262 | 0.0 | 0.0 | 0.00 | 0.56 | 0.25 | 71 | 1014.2 |
| 20260505221305 | 17 | 307 | 0.0 | 1.6 | 0.00 | 0.56 | 0.25 | 72 | 1014.3 |
| 20260505220803 | 17 | 307 | 0.0 | 3.2 | 0.00 | 0.56 | 0.25 | 72 | 1014.3 |
| 20260505220305 | 17 | 301 | 0.0 | 3.2 | 0.00 | 0.56 | 0.25 | 72 | 1014.2 |
| 20260505215803 | 17 | 277 | 0.0 | 0.0 | 0.00 | 0.56 | 0.25 | 73 | 1014.3 |
| 20260505215306 | 17 | 277 | 0.0 | 6.4 | 0.00 | 0.56 | 0.25 | 73 | 1014.3 |
| 20260505215056 | 17 | 277 | 0.0 | 6.4 | 0.00 | 0.56 | 0.25 | 72 | 1014.3 |
| 20260505214304 | 17 | 302 | 0.0 | 4.8 | 0.00 | 0.56 | 0.25 | 71 | 1014.4 |
| 20260505213803 | 17 | 293 | 0.0 | 4.8 | 0.00 | 0.56 | 0.25 | 71 | 1014.4 |
| 20260505213304 | 17 | 84 | 0.0 | 0.0 | 0.00 | 0.56 | 0.25 | 70 | 1014.4 |